Location: Baia Mare
(47.6567°N, 23.5850°E)
Time: 12:55:36
(UTC+02:00)

ISS - Pass Details

Date: 04 December 2018
Orbit: 401 x 408 km, 51.6° (Epoch: 16 December)

Event Time Altitude Azimuth Distance (km) Brightness Sun altitude
Rises 17:15:43 0° 269° (W) 2,316 1.4 -6.8°
Reaches altitude 10° 17:17:52 10° 276° (W) 1,456 0.0 -7.1°
Maximum altitude 17:21:00 44° 350° (N) 569 -3.2 -7.6°
Enters shadow 17:24:00 11° 64° (ENE) 1,396 -1.8 -8.1°
